NC0JW Weather Reports


time (UTC)temp
C
wind
direction
speed
KPH
gust
KPH
rain 1hr
cm
rain 24hr
cm
rain mn
cm
humidity
%
barometer
mb
20260906212332 27 175 16.1 30.6 0.00 0.00 0.00 39 1020.9
20260906211831 27 163 14.5 33.8 0.00 0.00 0.00 39 1021.0
20260906211329 27 204 14.5 33.8 0.00 0.00 0.00 40 1021.0
20260906210831 27 134 16.1 30.6 0.00 0.00 0.00 40 1020.9
20260906205830 27 188 12.9 29.0 0.00 0.00 0.00 41 1021.3
20260906205331 27 167 11.3 22.5 0.00 0.00 0.00 42 1021.3
20260906204827 27 157 11.3 22.5 0.00 0.00 0.00 43 1021.4
20260906202803 27 175 12.9 30.6 0.00 0.00 0.00 41 1021.4
20260906202306 27 140 11.3 29.0 0.00 0.00 0.00 43 1021.5
20260906201757 26 180 12.9 29.0 0.00 0.00 0.00 43 1021.5
20260906200258 26 145 9.7 22.5 0.00 0.00 0.00 44 1021.5
20260906195759 26 177 11.3 25.7 0.00 0.00 0.00 43 1021.5
20260906195258 26 157 9.7 25.7 0.00 0.00 0.00 43 1021.6
20260906194758 27 157 8.0 22.5 0.00 0.00 0.00 43 1021.6
20260906194251 26 140 9.7 27.4 0.00 0.00 0.00 44 1021.9
20260906193751 26 158 11.3 30.6 0.00 0.00 0.00 43 1022.0
20260906193251 26 180 11.3 30.6 0.00 0.00 0.00 43 1021.9
20260906192751 27 138 12.9 29.0 0.00 0.00 0.00 41 1021.9
20260906192252 27 150 11.3 24.1 0.00 0.00 0.00 41 1021.9
20260906191752 27 111 8.0 24.1 0.00 0.00 0.00 42 1022.0
20260906191250 26 144 8.0 24.1 0.00 0.00 0.00 41 1022.3
20260906190749 26 193 8.0 24.1 0.00 0.00 0.00 40 1022.4
20260906185736 26 155 8.0 19.3 0.00 0.00 0.00 40 1022.4
20260906185222 26 182 12.9 20.9 0.00 0.00 0.00 39 1022.6
20260906184722 26 225 8.0 20.9 0.00 0.00 0.00 40 1022.8
20260906184220 26 172 4.8 14.5 0.00 0.00 0.00 41 1022.8
20260906183719 26 203 8.0 17.7 0.00 0.00 0.00 41 1022.9
20260906183219 26 202 6.4 17.7 0.00 0.00 0.00 40 1022.9
20260906182719 26 170 1.6 12.9 0.00 0.00 0.00 41 1023.0
20260906182220 26 144 1.6 9.7 0.00 0.00 0.00 42 1023.0
20260906181718 26 156 4.8 14.5 0.00 0.00 0.00 41 1023.0
20260906181220 26 128 4.8 14.5 0.00 0.00 0.00 42 1023.1
20260906180710 25 148 6.4 16.1 0.00 0.00 0.00 43 1023.3
20260906175704 25 148 3.2 14.5 0.00 0.00 0.00 43 1023.5
20260906175201 25 121 4.8 14.5 0.00 0.00 0.00 43 1023.5
20260906174202 25 159 4.8 16.1 0.00 0.00 0.00 42 1023.6
20260906173659 25 156 6.4 17.7 0.00 0.00 0.00 42 1023.9
20260906173159 25 148 3.2 17.7 0.00 0.00 0.00 42 1023.8
20260906172659 25 167 3.2 9.7 0.00 0.00 0.00 43 1023.8
20260906172159 25 69 3.2 12.9 0.00 0.00 0.00 43 1023.9
20260906171144 25 113 4.8 14.5 0.00 0.00 0.00 43 1023.9
20260906170641 25 134 6.4 17.7 0.00 0.00 0.00 42 1023.9
20260906170139 25 108 4.8 17.7 0.00 0.00 0.00 43 1023.9
20260906165639 25 120 4.8 14.5 0.00 0.00 0.00 43 1024.0
20260906165139 25 86 4.8 14.5 0.00 0.00 0.00 43 1024.1
20260906164138 25 142 3.2 11.3 0.00 0.00 0.00 43 1024.0
20260906163636 24 127 4.8 12.9 0.00 0.00 0.00 43 1023.9
20260906163136 24 142 4.8 12.9 0.00 0.00 0.00 43 1023.9
20260906162122 23 105 4.8 14.5 0.00 0.00 0.00 44 1023.9
20260906161621 23 97 3.2 9.7 0.00 0.00 0.00 44 1023.9
20260906161121 23 48 3.2 11.3 0.00 0.00 0.00 45 1023.9
20260906160622 23 123 4.8 14.5 0.00 0.00 0.00 45 1024.0
20260906160121 23 51 3.2 14.5 0.00 0.00 0.00 47 1024.0
20260906155621 23 96 4.8 16.1 0.00 0.00 0.00 46 1024.0
20260906154622 23 80 8.0 17.7 0.00 0.00 0.00 45 1023.9
20260906153621 23 47 6.4 16.1 0.00 0.00 0.00 43 1023.8
20260906153120 23 57 6.4 16.1 0.00 0.00 0.00 42 1023.8
20260906152611 23 40 6.4 14.5 0.00 0.00 0.00 43 1023.6
20260906151110 22 55 8.0 14.5 0.00 0.00 0.00 43 1023.8
20260906150611 22 33 9.7 16.1 0.00 0.00 0.00 44 1023.8
20260906150112 22 54 9.7 19.3 0.00 0.00 0.00 44 1023.6
20260906145605 22 35 11.3 19.3 0.00 0.00 0.00 46 1023.5
20260906144606 22 5 12.9 20.9 0.00 0.00 0.00 47 1023.5
20260906144105 21 15 12.9 20.9 0.00 0.00 0.00 47 1023.5
20260906142604 21 5 11.3 19.3 0.00 0.00 0.00 50 1023.4
20260906142049 21 355 14.5 19.3 0.00 0.00 0.00 50 1023.3
20260906141022 20 15 11.3 17.7 0.00 0.00 0.00 51 1023.4
20260906140522 20 11 9.7 17.7 0.00 0.00 0.00 51 1023.3
20260906140022 20 5 9.7 17.7 0.00 0.00 0.00 52 1023.3
20260906134520 18 5 12.9 20.9 0.00 0.00 0.00 54 1023.1
20260906134019 18 9 11.3 19.3 0.00 0.00 0.00 54 1023.1
20260906133519 18 355 6.4 17.7 0.00 0.00 0.00 55 1023.0
20260906133019 17 23 6.4 16.1 0.00 0.00 0.00 56 1023.0
20260906131955 17 9 9.7 17.7 0.00 0.00 0.00 57 1023.0
20260906131441 17 355 9.7 17.7 0.00 0.00 0.00 57 1022.9
20260906130928 16 22 9.7 16.1 0.00 0.00 0.00 58 1022.8
20260906130417 16 9 8.0 14.5 0.00 0.00 0.00 59 1022.8
20260906125401 16 349 6.4 14.5 0.00 0.00 0.00 59 1022.6
20260906124337 15 350 9.7 16.1 0.00 0.00 0.00 60 1022.6
20260906123828 15 13 8.0 16.1 0.00 0.00 0.00 60 1022.8
20260906123328 15 20 6.4 16.1 0.00 0.00 0.00 59 1022.8
20260906122829 15 347 6.4 16.1 0.00 0.00 0.00 59 1022.8
20260906122328 15 348 6.4 14.5 0.00 0.00 0.00 59 1022.6
20260906121828 15 355 3.2 11.3 0.00 0.00 0.00 59 1022.6
20260906121328 15 0 4.8 14.5 0.00 0.00 0.00 59 1022.5
20260906120829 15 17 4.8 14.5 0.00 0.00 0.00 59 1022.5
20260906120328 15 355 4.8 12.9 0.00 0.00 0.00 60 1022.5
20260906115829 15 5 4.8 12.9 0.00 0.00 0.00 60 1022.5
20260906115327 15 355 6.4 11.3 0.00 0.00 0.00 60 1022.5
20260906114316 15 0 8.0 14.5 0.00 0.00 0.00 59 1022.6
20260906113316 15 11 8.0 14.5 0.00 0.00 0.00 60 1022.6
20260906112817 15 5 6.4 12.9 0.00 0.00 0.00 60 1022.5
20260906112318 15 5 6.4 12.9 0.00 0.00 0.00 60 1022.4
20260906111816 15 350 4.8 12.9 0.00 0.00 0.00 61 1022.3
20260906111317 15 9 3.2 9.7 0.00 0.00 0.00 61 1022.3
20260906110803 15 5 4.8 9.7 0.00 0.00 0.00 61 1022.3
20260906110249 15 349 4.8 9.7 0.00 0.00 0.00 62 1022.3
20260906105747 15 349 6.4 11.3 0.00 0.00 0.00 62 1022.3
20260906105246 15 5 6.4 11.3 0.00 0.00 0.00 63 1022.3
20260906104746 15 355 4.8 8.0 0.00 0.00 0.00 63 1022.4
20260906104246 15 0 4.8 9.7 0.00 0.00 0.00 64 1022.4
20260906103746 15 0 4.8 9.7 0.00 0.00 0.00 65 1022.4
20260906103246 15 355 4.8 12.9 0.00 0.00 0.00 65 1022.3
20260906102247 15 13 4.8 11.3 0.00 0.00 0.00 65 1022.4
20260906101745 15 355 6.4 12.9 0.00 0.00 0.00 65 1022.4
20260906100210 15 355 4.8 11.3 0.00 0.00 0.00 66 1022.5
20260906095710 15 5 3.2 11.3 0.00 0.00 0.00 67 1022.5
20260906095210 15 355 1.6 9.7 0.00 0.00 0.00 68 1022.8
20260906094711 15 5 1.6 6.4 0.00 0.00 0.00 68 1022.8
20260906094210 15 355 4.8 11.3 0.00 0.00 0.00 69 1022.8
20260906093710 15 5 8.0 11.3 0.00 0.00 0.00 69 1022.8
20260906092209 15 355 3.2 6.4 0.00 0.00 0.00 71 1022.8
20260906091709 15 0 4.8 8.0 0.00 0.00 0.00 71 1022.6
20260906091205 15 0 4.8 8.0 0.00 0.00 0.00 71 1022.6
20260906090706 15 0 4.8 11.3 0.00 0.00 0.00 70 1022.5
20260906090207 16 5 4.8 11.3 0.00 0.00 0.00 70 1022.6
20260906085205 16 341 1.6 6.4 0.00 0.00 0.00 69 1022.5
20260906084705 16 355 1.6 8.0 0.00 0.00 0.00 69 1022.5
20260906084203 16 351 3.2 9.7 0.00 0.00 0.00 69 1022.5
20260906083701 17 0 4.8 12.9 0.00 0.00 0.00 69 1022.5
20260906083151 17 350 6.4 12.9 0.00 0.00 0.00 70 1022.6
20260906082641 17 5 4.8 12.9 0.00 0.00 0.00 71 1022.4
20260906082130 17 5 4.8 11.3 0.00 0.00 0.00 71 1022.5
20260906081623 17 10 4.8 9.7 0.00 0.00 0.00 71 1022.5
20260906080621 17 355 1.6 9.7 0.00 0.00 0.00 71 1022.6
20260906080123 16 348 1.6 9.7 0.00 0.00 0.00 73 1022.5
20260906075622 16 9 0.0 6.4 0.00 0.00 0.00 73 1022.5
20260906075120 16 328 0.0 4.8 0.00 0.00 0.00 74 1022.6
20260906074121 16 338 0.0 6.4 0.00 0.00 0.00 74 1022.6
20260906073615 16 291 0.0 3.2 0.00 0.00 0.00 74 1022.6
20260906073115 15 293 0.0 3.2 0.00 0.00 0.00 75 1022.6
20260906072614 15 320 0.0 3.2 0.00 0.00 0.00 76 1022.8
20260906072114 15 348 0.0 1.6 0.00 0.00 0.00 75 1023.0
20260906071115 15 348 0.0 6.4 0.00 0.00 0.00 75 1022.9
20260906070614 15 329 0.0 6.4 0.00 0.00 0.00 75 1022.9
20260906070114 15 331 0.0 3.2 0.00 0.00 0.00 75 1022.9
20260906065615 15 355 0.0 1.6 0.00 0.00 0.00 74 1023.0
20260906065114 15 355 0.0 6.4 0.00 0.00 0.00 74 1023.0
20260906064615 16 350 0.0 6.4 0.00 0.00 0.00 74 1023.1
20260906064114 16 284 0.0 3.2 0.00 0.00 0.00 73 1023.1
20260906063614 16 221 0.0 0.0 0.00 0.00 0.00 72 1023.1
20260906063115 16 220 0.0 0.0 0.00 0.00 0.00 72 1023.1
20260906062614 16 220 0.0 0.0 0.00 0.00 0.00 72 1023.0
20260906062114 16 220 0.0 0.0 0.00 0.00 0.00 72 1023.0
20260906061613 16 220 0.0 0.0 0.00 0.00 0.00 72 1023.1
20260906061113 16 220 0.0 0.0 0.00 0.00 0.00 72 1022.9
20260906060558 16 220 0.0 6.4 0.00 0.00 0.00 71 1022.9
20260906055557 16 144 0.0 0.0 0.00 0.00 0.00 72 1022.9
20260906055054 16 144 0.0 0.0 0.00 0.00 0.00 70 1023.0
20260906054552 16 144 0.0 0.0 0.00 0.00 0.00 72 1022.8
20260906053551 17 144 0.0 0.0 0.00 0.00 0.00 71 1022.9
20260906053053 17 144 0.0 0.0 0.00 0.00 0.00 70 1022.9
20260906052547 17 144 0.0 0.0 0.00 0.00 0.00 70 1022.9
20260906052046 17 144 0.0 0.0 0.00 0.00 0.00 69 1022.8
20260906051040 17 144 0.0 0.0 0.00 0.00 0.00 69 1022.9
20260906050537 17 109 0.0 0.0 0.00 0.00 0.00 69 1023.0
20260906050034 17 109 0.0 0.0 0.00 0.00 0.00 69 1023.0
20260906045535 17 109 0.0 0.0 0.00 0.00 0.00 69 1022.9
20260906045036 17 109 0.0 0.0 0.00 0.00 0.00 69 1022.9
20260906044533 18 109 0.0 0.0 0.00 0.00 0.00 68 1023.0
20260906044034 18 109 0.0 0.0 0.00 0.00 0.00 68 1023.0
20260906043534 18 109 0.0 0.0 0.00 0.00 0.00 69 1023.1
20260906043026 18 109 0.0 0.0 0.00 0.00 0.00 68 1022.9
20260906042524 18 109 0.0 0.0 0.00 0.00 0.00 68 1023.0
20260906042022 18 109 0.0 3.2 0.00 0.00 0.00 68 1023.0
20260906041519 18 109 0.0 3.2 0.00 0.00 0.00 68 1023.1
20260906040017 18 109 0.0 3.2 0.00 0.00 0.00 69 1023.0
20260906035517 18 109 0.0 3.2 0.00 0.00 0.00 69 1023.1
20260906035018 18 109 0.0 0.0 0.00 0.00 0.00 69 1023.1
20260906034516 19 109 0.0 1.6 0.00 0.00 0.00 68 1023.3
20260906034019 19 109 0.0 6.4 0.00 0.00 0.00 68 1023.3
20260906033512 19 109 0.0 4.8 0.00 0.00 0.00 68 1023.1
20260906033002 19 147 0.0 0.0 0.00 0.00 0.00 68 1023.0
20260906031953 19 147 1.6 6.4 0.00 0.00 0.00 67 1023.0
20260906031451 20 147 1.6 6.4 0.00 0.00 0.00 67 1023.0
20260906030949 20 123 0.0 4.8 0.00 0.00 0.00 67 1023.0
20260906030448 20 114 0.0 0.0 0.00 0.00 0.00 67 1022.9
20260906025948 20 114 0.0 0.0 0.00 0.00 0.00 66 1022.9
20260906025447 20 114 0.0 0.0 0.00 0.00 0.00 66 1022.8
20260906024946 20 111 0.0 6.4 0.00 0.00 0.00 66 1022.6
20260906024444 20 94 0.0 6.4 0.00 0.00 0.00 65 1022.5
20260906023933 20 130 0.0 4.8 0.00 0.00 0.00 64 1022.6
20260906022927 21 105 4.8 11.3 0.00 0.00 0.00 64 1022.4
20260906021928 21 166 8.0 20.9 0.00 0.00 0.00 62 1022.4
20260906020928 21 157 8.0 16.1 0.00 0.00 0.00 61 1022.4
20260906020426 22 155 9.7 20.9 0.00 0.00 0.00 59 1022.4
20260906015928 22 136 11.3 29.0 0.00 0.00 0.00 58 1022.3
20260906015427 22 141 9.7 29.0 0.00 0.00 0.00 55 1022.1
20260906014926 21 111 4.8 9.7 0.00 0.00 0.00 41 1022.0
20260906014424 21 33 4.8 9.7 0.00 0.00 0.00 42 1021.6
20260906013926 21 18 1.6 8.0 0.00 0.00 0.00 42 1021.8
20260906013416 21 13 0.0 6.4 0.00 0.00 0.00 42 1021.6
20260906012916 22 13 0.0 4.8 0.00 0.00 0.00 40 1021.6
20260906012414 22 13 3.2 6.4 0.00 0.00 0.00 40 1021.6
20260906011915 23 13 6.4 11.3 0.00 0.00 0.00 39 1021.6
20260906010912 24 14 4.8 8.0 0.00 0.00 0.00 37 1021.8
20260906010413 24 32 4.8 6.4 0.00 0.00 0.00 37 1021.8
20260906005400 25 32 3.2 8.0 0.00 0.00 0.00 36 1021.9
20260906004858 25 32 3.2 6.4 0.00 0.00 0.00 36 1022.0
20260906004358 25 32 4.8 6.4 0.00 0.00 0.00 36 1021.9
20260906003859 25 32 3.2 8.0 0.00 0.00 0.00 36 1022.0
20260906003357 25 36 1.6 8.0 0.00 0.00 0.00 35 1021.9
20260906002852 25 36 1.6 6.4 0.00 0.00 0.00 35 1021.9
20260906002350 25 36 3.2 8.0 0.00 0.00 0.00 35 1021.8
20260906001848 25 36 1.6 8.0 0.00 0.00 0.00 35 1021.8
20260906001347 25 36 1.6 6.4 0.00 0.00 0.00 35 1021.8
20260906000844 25 36 3.2 12.9 0.00 0.00 0.00 35 1021.8
20260906000348 26 34 4.8 12.9 0.00 0.00 0.00 34 1021.8
20260905235846 26 30 3.2 9.7 0.00 0.00 0.00 33 1021.6
20260905235344 26 42 3.2 9.7 0.00 0.00 0.00 33 1021.6
20260905234340 26 20 3.2 9.7 0.00 0.00 0.00 33 1021.6
20260905233837 26 56 1.6 9.7 0.00 0.00 0.00 32 1021.6
20260905233335 26 66 0.0 0.0 0.00 0.00 0.00 33 1021.8
20260905232832 26 66 0.0 8.0 0.00 0.00 0.00 32 1021.6
20260905232329 26 66 1.6 9.7 0.00 0.00 0.00 32 1021.6
20260905231829 27 66 1.6 9.7 0.00 0.00 0.00 32 1021.6
20260905231330 27 26 0.0 1.6 0.00 0.00 0.00 31 1021.5
20260905230829 27 17 1.6 6.4 0.00 0.00 0.00 31 1021.5
20260905230328 27 17 3.2 8.0 0.00 0.00 0.00 31 1021.6
20260905225827 27 44 1.6 8.0 0.00 0.00 0.00 30 1021.5
20260905225325 27 0 0.0 8.0 0.00 0.00 0.00 31 1021.5
20260905224823 27 5 3.2 14.5 0.00 0.00 0.00 31 1021.8
20260905224315 27 9 3.2 14.5 0.00 0.00 0.00 31 1021.8
20260905223810 27 15 1.6 12.9 0.00 0.00 0.00 31 1021.8
20260905223309 27 331 1.6 9.7 0.00 0.00 0.00 31 1022.0
20260905222809 27 355 1.6 9.7 0.00 0.00 0.00 31 1022.0
20260905222309 27 330 3.2 9.7 0.00 0.00 0.00 31 1022.1
20260905221807 27 0 1.6 8.0 0.00 0.00 0.00 32 1021.9
20260905221306 27 30 3.2 14.5 0.00 0.00 0.00 31 1022.0
20260905220807 27 15 3.2 14.5 0.00 0.00 0.00 31 1022.0
20260905220305 27 38 1.6 11.3 0.00 0.00 0.00 30 1021.9
20260905215803 27 10 1.6 11.3 0.00 0.00 0.00 31 1021.9
20260905215306 27 347 3.2 12.9 0.00 0.00 0.00 33 1022.1
20260905213301 26 18 9.7 22.5 0.00 0.00 0.00 35 1022.1
20260905212802 26 13 6.4 19.3 0.00 0.00 0.00 34 1022.5